Вернуться в каталог

STARLINK-36651

АктивенСвязьVLEO
NORAD 67840·PAYLOAD·🇺🇸 United States

Запущен Feb 16, 2026 с Vandenberg Space Force Base

Loading…

Ближайшие Пролёты (ближайшие 24 часа)

TLE

СвежийSource: CelesTrak SupGP

Эпоха: Sep 15, 2026, 03:04 UTC

1 67840C 26033V   26258.12826389 -.00007263  00000+0 -26302-3 0  2584
2 67840  43.0022 277.2353 0001462 272.1435 168.4165 15.27588893    12

Отслеживайте STARLINK-36651 в реальном времени с AllMySat

Download on the App Store